QPF
0.04 0.00 0.00 0.00 0.00 0.00 0.01 0.02 0.01 0.00 0.00 0.00 0.00 0.00 0.00 0.00 0.00 0.00 0.00 0.00 0.00 0.00 0.00 0.00 0.00 0.00 0.00 0.00 0.00 0.00 0.00 0.00 0.00 0.00 0.00 0.00 0.00 0.00 0.00 0.00 0.02 0.01 0.01
0.00 0.00 0.00 0.00 0.00 0.00 0.00 0.00 0.00 0.00 0.00 0.00 0.00 0.01 0.01 0.01 0.00 0.00 0.00 0.01 0.00 0.00 0.00 0.00 0.00 0.00 0.00 0.00 0.00 0.00 0.00 0.00 0.00 0.00 0.00 0.00 0.00 0.00 0.00 0.00 0.00 0.00 0.00
0.00 0.00 0.00 0.00 0.00 0.00 0.00 0.00 0.00 0.00 0.00 0.00 0.00 0.00 0.00 0.00 0.00 0.00 0.01 0.02 0.01 0.01 0.01 0.02 0.03 0.01 0.00 0.00 0.00 0.00 0.00 0.00 0.00 0.00 0.08 0.17 0.00 0.00 0.04 0.01 0.00 0.03 0.00
0.00 0.00 0.00 0.00 0.00 0.00 0.00 0.00 0.00 0.00 0.00 0.00 0.00 0.00 0.00 0.00 0.00 0.00 0.00 0.00 0.00 0.00 0.00 0.00 0.00 0.01 0.01 0.00 0.00 0.00 0.00 0.00 0.00 0.00 0.07 0.22 0.11 0.01 0.04 0.04 0.01 0.07 0.00
0.00 0.00 0.00 0.00 0.00 0.00 0.00 0.00 0.00 0.00 0.00 0.00 0.00 0.00 0.00 0.00 0.00 0.00 0.00 0.00 0.00 0.00 0.00 0.00 0.00 0.00 0.01 0.00 0.00 0.00 0.00 0.00 0.00 0.00 0.00 0.02 0.00 0.00 0.00 0.00 0.00 0.00 0.00
0.00 0.00 0.00 0.00 0.00 0.00 0.00 0.00 0.00 0.00 0.00 0.00 0.00 0.00 0.00 0.00 0.00 0.00 0.00 0.00 0.00 0.00 0.00 0.00 0.00 0.00 0.00 0.00 0.00 0.00 0.00 0.00 0.00 0.01 0.01 0.00 0.00 0.00 0.00 0.00 0.00 0.00 0.00
0.00 0.00 0.00 0.00 0.00 0.00 0.00 0.00 0.00 0.00 0.00 0.00 0.00 0.00 0.00 0.00 0.00 0.00 0.00 0.00 0.00 0.00 0.00 0.00 0.00 0.00 0.00 0.00 0.00 0.00 0.00 0.00 0.00 0.01 0.00 0.01 0.01 0.00 0.00 0.00 0.00 0.00 0.00
0.00 0.00 0.00 0.00 0.00 0.00 0.00 0.00 0.00 0.00 0.00 0.00 0.00 0.00 0.00 0.00 0.00 0.00 0.00 0.00 0.00 0.00 0.00 0.00 0.00 0.00 0.00 0.00 0.00 0.00 0.00 0.00 0.01 0.01 0.00 0.00 0.00 0.02 0.00 0.00 0.00 0.00 0.00
0.00 0.00 0.00 0.00 0.00 0.00 0.00 0.00 0.00 0.00 0.00 0.00 0.00 0.00 0.00 0.00 0.00 0.00 0.00 0.00 0.00 0.00 0.00 0.00 0.00 0.00 0.00 0.00 0.00 0.00 0.00 0.00 0.02 0.01 0.01 0.01 0.02 0.01 0.00 0.00 0.00 0.00 0.00
0.00 0.00 0.00 0.00 0.00 0.00 0.00 0.00 0.00 0.00 0.00 0.00 0.00 0.00 0.00 0.00 0.00 0.00 0.00 0.00 0.00 0.00 0.00 0.00 0.00 0.00 0.00 0.00 0.00 0.00 0.00 0.00 0.01 0.05 0.05 0.02 0.05 0.01 0.00 0.00 0.00 0.00 0.00
0.00 0.00 0.00 0.00 0.00 0.00 0.00 0.00 0.00 0.00 0.00 0.00 0.00 0.00 0.00 0.01 0.03 0.00 0.00 0.00 0.00 0.00 0.00 0.01 0.03 0.05 0.02 0.01 0.03 0.04 0.01 0.02 0.02 0.03 0.01 0.00 0.03 0.00 0.00 0.00 0.00 0.00 0.01
0.00 0.00 0.00 0.00 0.00 0.00 0.00 0.00 0.00 0.00 0.00 0.00 0.00 0.00 0.01 0.00 0.00 0.00 0.00 0.00 0.00 0.00 0.01 0.01 0.03 0.04 0.01 0.01 0.01 0.06 0.00 0.09 0.04 0.00 0.00 0.01 0.01 0.00 0.00 0.00 0.00 0.00 0.01
0.00 0.00 0.00 0.00 0.00 0.00 0.00 0.00 0.00 0.00 0.00 0.00 0.00 0.01 0.03 0.00 0.00 0.01 0.04 0.00 0.03 0.01 0.00 0.04 0.02 0.00 0.00 0.01 0.00 0.02 0.01 0.01 0.00 0.01 0.00 0.00 0.00 0.00 0.00 0.00 0.00 0.00 0.00
0.00 0.00 0.00 0.00 0.00 0.00 0.00 0.00 0.00 0.00 0.00 0.00 0.00 0.01 0.04 0.02 0.03 0.04 0.00 0.00 0.05 0.00 0.01 0.00 0.00 0.00 0.01 0.00 0.00 0.00 0.02 0.00 0.00 0.00 0.00 0.00 0.00 0.00 0.00 0.00 0.00 0.00 0.00
0.00 0.00 0.00 0.00 0.00 0.00 0.00 0.00 0.00 0.00 0.02 0.00 0.00 0.00 0.00 0.02 0.08 0.01 0.00 0.02 0.04 0.02 0.02 0.00 0.00 0.00 0.00 0.00 0.00 0.00 0.01 0.00 0.01 0.01 0.00 0.00 0.00 0.00 0.00 0.00 0.00 0.00 0.00
0.00 0.00 0.00 0.00 0.00 0.00 0.00 0.00 0.01 0.00 0.00 0.00 0.00 0.00 0.00 0.00 0.01 0.00 0.00 0.02 0.01 0.00 0.00 0.00 0.00 0.00 0.00 0.00 0.00 0.00 0.00 0.00 0.01 0.01 0.00 0.00 0.00 0.00 0.00 0.00 0.00 0.00 0.00
0.00 0.00 0.00 0.00 0.00 0.00 0.00 0.00 0.16 0.08 0.01 0.00 0.00 0.00 0.00 0.00 0.00 0.00 0.00 0.00 0.00 0.00 0.00 0.00 0.00 0.00 0.00 0.00 0.00 0.01 0.01 0.00 0.00 0.00 0.00 0.01 0.02 0.01 0.00 0.00 0.00 0.01 0.00
0.00 0.00 0.00 0.00 0.00 0.00 0.00 0.01 0.03 0.03 0.01 0.00 0.00 0.00 0.00 0.00 0.00 0.00 0.00 0.00 0.00 0.00 0.00 0.00 0.00 0.00 0.00 0.00 0.00 0.00 0.00 0.00 0.00 0.00 0.01 0.09 0.20 0.07 0.02 0.00 0.02 0.05 0.01
0.00 0.00 0.00 0.00 0.00 0.00 0.00 0.00 0.00 0.00 0.00 0.00 0.00 0.00 0.00 0.00 0.00 0.00 0.00 0.00 0.00 0.00 0.00 0.00 0.00 0.00 0.00 0.00 0.00 0.00 0.00 0.00 0.00 0.00 0.02 0.12 0.15 0.11 0.06 0.01 0.01 0.01 0.01
0.00 0.00 0.00 0.00 0.00 0.00 0.00 0.00 0.00 0.00 0.00 0.00 0.00 0.00 0.00 0.00 0.00 0.00 0.03 0.01 0.00 0.00 0.00 0.00 0.00 0.00 0.00 0.00 0.00 0.00 0.00 0.00 0.00 0.00 0.00 0.03 0.11 0.14 0.07 0.04 0.02 0.02 0.01
0.00 0.00 0.00 0.00 0.00 0.00 0.00 0.00 0.00 0.00 0.00 0.00 0.00 0.00 0.00 0.00 0.00 0.00 0.04 0.09 0.00 0.01 0.01 0.00 0.00 0.00 0.00 0.00 0.00 0.00 0.00 0.00 0.00 0.00 0.00 0.00 0.04 0.06 0.07 0.04 0.05 0.05 0.04
0.00 0.00 0.00 0.00 0.00 0.00 0.00 0.00 0.00 0.00 0.00 0.00 0.00 0.00 0.00 0.00 0.00 0.00 0.01 0.05 0.01 0.03 0.02 0.00 0.00 0.00 0.00 0.00 0.00 0.00 0.00 0.00 0.00 0.00 0.00 0.00 0.00 0.00 0.01 0.05 0.09 0.05 0.11
0.00 0.00 0.00 0.00 0.00 0.00 0.00 0.00 0.00 0.00 0.00 0.00 0.00 0.00 0.00 0.00 0.00 0.00 0.00 0.00 0.01 0.04 0.03 0.00 0.00 0.00 0.00 0.00 0.00 0.00 0.00 0.00 0.00 0.00 0.00 0.00 0.00 0.00 0.00 0.01 0.03 0.03 0.12
0.00 0.00 0.00 0.00 0.00 0.00 0.00 0.00 0.00 0.00 0.00 0.00 0.00 0.00 0.00 0.00 0.00 0.00 0.00 0.00 0.00 0.02 0.02 0.01 0.00 0.00 0.00 0.00 0.00 0.00 0.00 0.00 0.00 0.00 0.00 0.00 0.00 0.00 0.00 0.00 0.00 0.00 0.01
0.00 0.00 0.00 0.00 0.00 0.00 0.00 0.00 0.00 0.00 0.00 0.00 0.00 0.00 0.00 0.00 0.00 0.00 0.00 0.00 0.00 0.00 0.01 0.01 0.02 0.00 0.00 0.00 0.00 0.00 0.00 0.00 0.00 0.00 0.00 0.00 0.00 0.00 0.00 0.00 0.00 0.00 0.00
0.00 0.00 0.00 0.00 0.00 0.00 0.00 0.00 0.00 0.00 0.00 0.00 0.00 0.00 0.00 0.00 0.00 0.00 0.00 0.00 0.00 0.00 0.02 0.02 0.02 0.03 0.02 0.00 0.00 0.00 0.00 0.00 0.00 0.01 0.01 0.00 0.00 0.00 0.00 0.00 0.00 0.00 0.00
MSLP
1012.44 1012.50 1012.81 1013.00 1013.20 1013.35 1013.48 1013.45 1013.50 1013.58 1013.74 1013.78 1013.87 1013.97 1014.07 1014.24 1014.34 1014.46 1014.60 1014.81 1014.80 1014.86 1014.89 1014.90 1014.99 1015.09 1015.18 1015.16 1015.20 1015.21 1015.25 1015.53 1015.59 1015.68 1015.74 1015.69 1015.79 1015.85 1015.82 1015.71 1015.72 1015.92 1016.46
1011.62 1012.25 1012.75 1013.01 1013.25 1013.38 1013.41 1013.46 1013.59 1013.78 1013.86 1013.97 1014.03 1014.18 1014.20 1014.42 1014.53 1014.59 1014.78 1014.86 1014.91 1014.90 1014.93 1014.98 1015.07 1015.18 1015.27 1015.25 1015.24 1015.33 1015.46 1015.76 1015.99 1016.16 1016.12 1016.23 1016.12 1016.04 1016.08 1016.12 1016.12 1016.24 1016.65
1011.19 1012.13 1012.63 1013.05 1013.28 1013.41 1013.48 1013.51 1013.84 1013.88 1014.03 1014.08 1014.11 1014.31 1014.38 1014.56 1014.63 1014.71 1014.90 1014.97 1015.02 1015.06 1015.13 1015.21 1015.27 1015.33 1015.40 1015.40 1015.36 1015.48 1015.66 1015.90 1016.18 1015.90 1015.96 1015.83 1015.83 1015.95 1016.05 1016.22 1016.50 1016.60 1016.87
1010.53 1011.59 1012.57 1013.23 1013.30 1013.53 1013.67 1013.80 1013.98 1014.00 1014.15 1014.14 1014.29 1014.51 1014.52 1014.60 1014.70 1014.80 1014.96 1015.06 1015.13 1015.19 1015.28 1015.28 1015.28 1015.32 1015.33 1015.39 1015.37 1015.46 1015.59 1015.90 1016.14 1015.96 1015.91 1015.91 1015.82 1016.25 1016.23 1016.41 1016.52 1016.56 1016.84
1010.33 1011.61 1012.91 1013.34 1013.54 1013.73 1013.82 1013.94 1014.08 1014.24 1014.19 1014.33 1014.46 1014.54 1014.59 1014.70 1014.84 1014.93 1014.99 1015.01 1015.07 1015.18 1015.23 1015.21 1015.19 1015.20 1015.24 1015.22 1015.17 1015.16 1015.21 1015.51 1015.89 1015.71 1015.66 1015.69 1015.51 1016.24 1016.04 1016.16 1016.34 1016.35 1016.69
1010.61 1012.04 1012.98 1013.35 1013.60 1013.87 1014.00 1014.13 1014.25 1014.29 1014.32 1014.36 1014.50 1014.59 1014.67 1014.76 1014.80 1014.86 1014.87 1014.88 1015.01 1015.08 1015.07 1015.04 1015.09 1015.17 1015.24 1015.20 1015.23 1015.21 1015.26 1015.32 1015.64 1015.60 1015.34 1015.11 1015.30 1015.79 1015.83 1015.97 1016.02 1016.22 1016.48
1010.90 1012.12 1012.99 1013.42 1013.73 1013.94 1014.09 1014.19 1014.37 1014.37 1014.38 1014.47 1014.52 1014.60 1014.67 1014.76 1014.74 1014.71 1014.76 1014.83 1014.79 1014.82 1014.77 1014.78 1014.95 1015.16 1015.19 1015.16 1015.11 1015.26 1015.37 1015.47 1015.67 1015.15 1015.08 1014.80 1015.19 1015.58 1015.68 1015.76 1015.93 1016.29 1016.57
1010.54 1012.01 1012.99 1013.67 1013.93 1014.07 1014.19 1014.37 1014.39 1014.40 1014.47 1014.47 1014.46 1014.48 1014.49 1014.43 1014.44 1014.47 1014.54 1014.54 1014.53 1014.45 1014.44 1014.69 1015.05 1015.10 1015.02 1015.04 1015.19 1015.23 1015.20 1015.41 1014.55 1014.74 1014.60 1014.63 1014.88 1015.39 1015.62 1015.69 1015.95 1016.24 1016.53
1010.31 1011.77 1012.88 1013.52 1013.92 1014.12 1014.30 1014.39 1014.42 1014.46 1014.44 1014.38 1014.33 1014.26 1014.19 1014.12 1014.12 1014.12 1014.21 1014.24 1014.21 1014.20 1014.29 1014.49 1014.70 1014.79 1014.89 1015.01 1015.09 1015.08 1015.07 1015.14 1014.69 1014.45 1014.30 1014.69 1014.89 1015.12 1015.34 1015.60 1015.91 1016.11 1016.30
1010.25 1011.29 1012.28 1013.12 1013.44 1013.66 1014.13 1014.27 1014.25 1014.22 1014.21 1014.18 1013.98 1014.02 1013.92 1013.89 1013.85 1013.77 1013.75 1013.73 1013.67 1013.73 1013.82 1014.06 1014.55 1014.69 1014.67 1014.59 1014.75 1014.78 1014.78 1014.66 1014.35 1014.92 1014.72 1015.14 1015.51 1015.42 1015.35 1015.37 1015.46 1015.63 1015.82
1010.43 1011.35 1011.84 1012.53 1013.06 1013.29 1013.56 1013.83 1013.95 1013.92 1013.95 1014.00 1013.67 1013.73 1013.54 1013.56 1012.89 1012.76 1012.62 1012.67 1013.05 1013.06 1013.36 1013.82 1013.81 1013.88 1013.87 1013.88 1014.50 1014.22 1014.37 1014.48 1014.90 1014.89 1015.09 1015.14 1015.20 1015.21 1015.18 1015.18 1015.34 1015.35 1015.42
1010.61 1011.20 1011.91 1012.25 1012.64 1012.64 1012.67 1013.22 1013.34 1013.34 1013.47 1013.36 1013.10 1012.87 1012.88 1012.76 1012.79 1013.85 1013.33 1011.97 1011.60 1012.00 1012.64 1012.47 1013.21 1013.63 1014.03 1014.00 1014.40 1013.15 1013.83 1014.14 1014.74 1014.52 1014.97 1014.91 1015.09 1015.01 1015.10 1015.21 1015.19 1015.19 1015.09
1010.56 1010.91 1011.59 1012.06 1012.23 1011.97 1012.44 1012.78 1012.97 1012.99 1013.03 1012.92 1012.83 1013.03 1012.90 1012.37 1012.86 1014.09 1013.38 1011.81 1012.32 1011.92 1012.05 1012.29 1012.86 1013.21 1013.80 1013.62 1013.80 1013.78 1013.55 1014.21 1013.79 1014.36 1014.85 1014.81 1015.04 1015.11 1015.20 1015.22 1015.19 1015.24 1015.16
1010.37 1010.91 1011.42 1012.12 1012.28 1012.25 1012.71 1012.90 1012.90 1012.75 1013.06 1013.03 1012.74 1012.84 1012.91 1013.17 1013.41 1012.49 1011.81 1010.67 1011.90 1012.14 1011.62 1012.21 1012.45 1012.85 1012.53 1012.89 1013.07 1013.36 1013.25 1012.72 1013.60 1014.24 1014.58 1014.61 1014.73 1015.22 1015.38 1015.44 1015.26 1015.41 1015.55
1010.47 1011.06 1011.64 1012.53 1012.88 1012.83 1013.19 1013.52 1013.14 1013.10 1013.12 1013.04 1012.74 1012.45 1012.90 1013.78 1013.81 1012.31 1011.31 1011.35 1011.26 1012.06 1011.91 1012.07 1011.82 1011.67 1012.08 1011.98 1012.27 1012.27 1012.80 1012.46 1013.46 1014.25 1014.35 1014.46 1014.63 1015.14 1015.66 1015.89 1015.95 1015.61 1015.86
1010.59 1011.13 1011.86 1012.65 1013.11 1013.11 1013.42 1013.27 1013.17 1013.20 1012.86 1012.63 1012.67 1012.43 1012.17 1012.60 1012.72 1012.26 1011.80 1012.20 1011.85 1011.59 1011.37 1011.50 1011.72 1011.71 1011.65 1011.58 1011.90 1011.78 1011.93 1012.07 1012.75 1013.35 1014.22 1014.79 1014.94 1015.46 1015.24 1015.38 1015.69 1015.66 1015.50
1010.61 1011.07 1011.87 1012.48 1013.09 1013.38 1013.31 1013.25 1014.06 1013.43 1012.75 1012.92 1012.43 1012.33 1012.26 1012.41 1012.32 1012.15 1012.57 1012.21 1011.80 1011.83 1011.78 1011.45 1011.54 1011.57 1011.59 1011.58 1011.57 1011.71 1011.48 1012.12 1012.35 1013.07 1013.66 1014.55 1015.84 1015.98 1016.01 1015.87 1015.92 1015.80 1015.60
1010.51 1011.08 1011.69 1011.86 1012.73 1013.21 1013.33 1013.23 1013.93 1013.51 1012.69 1011.99 1012.25 1012.14 1012.13 1012.28 1012.32 1012.33 1012.36 1012.10 1011.97 1012.00 1012.07 1011.84 1011.71 1011.79 1011.74 1011.68 1011.79 1011.43 1011.38 1011.76 1012.13 1012.46 1013.36 1014.84 1015.85 1015.56 1016.01 1015.95 1015.78 1016.01 1015.81
1010.54 1011.10 1011.59 1011.73 1012.53 1012.96 1012.98 1012.81 1012.66 1013.00 1012.29 1012.19 1011.77 1012.23 1012.08 1012.26 1012.35 1012.47 1012.45 1012.08 1012.08 1012.32 1012.43 1012.37 1012.32 1012.19 1012.25 1012.25 1012.03 1011.47 1011.20 1011.42 1011.83 1012.00 1012.89 1014.59 1014.85 1015.19 1015.71 1015.51 1015.45 1016.10 1016.16
1010.48 1011.02 1011.46 1011.62 1012.12 1012.62 1012.92 1012.97 1012.82 1012.46 1011.98 1011.55 1012.03 1012.12 1012.26 1012.56 1012.17 1012.73 1013.04 1012.62 1012.32 1012.64 1012.80 1012.81 1012.71 1012.33 1012.32 1012.50 1012.28 1011.70 1011.41 1011.41 1011.68 1012.09 1012.73 1013.72 1014.65 1015.02 1015.54 1015.31 1015.66 1016.07 1016.22
1010.46 1010.95 1011.36 1011.66 1012.01 1012.45 1012.74 1012.52 1012.39 1012.76 1012.44 1011.82 1011.70 1011.83 1012.23 1012.43 1012.26 1012.31 1013.89 1013.51 1013.04 1013.20 1013.32 1013.08 1012.94 1012.51 1012.48 1012.59 1012.40 1011.72 1011.19 1011.26 1011.57 1011.87 1012.57 1012.79 1013.42 1013.90 1014.65 1015.04 1015.77 1016.20 1016.48
1010.20 1010.93 1011.30 1011.62 1012.06 1012.57 1012.63 1012.41 1012.42 1012.63 1012.38 1011.83 1011.87 1011.89 1012.10 1012.21 1012.14 1012.33 1013.09 1012.67 1013.14 1013.47 1013.63 1013.25 1013.16 1013.01 1012.76 1012.86 1013.09 1012.62 1012.03 1011.94 1012.27 1012.26 1012.37 1013.03 1013.32 1013.40 1013.90 1014.76 1015.62 1016.05 1016.56
1009.61 1010.43 1011.07 1011.60 1011.90 1012.30 1012.52 1012.41 1012.39 1012.41 1012.11 1011.72 1011.59 1011.88 1012.10 1012.17 1012.25 1012.38 1012.54 1012.81 1012.99 1013.28 1013.42 1013.00 1013.14 1013.07 1013.02 1013.03 1013.12 1013.39 1013.31 1013.29 1013.11 1012.82 1012.74 1012.96 1013.33 1013.85 1014.62 1015.07 1015.59 1016.14 1016.83
1008.85 1009.72 1010.47 1011.17 1011.66 1012.14 1012.48 1012.56 1012.46 1012.30 1012.20 1012.00 1011.82 1012.00 1012.11 1011.86 1012.13 1012.21 1012.37 1012.60 1012.96 1013.29 1013.10 1013.24 1013.22 1013.44 1013.31 1013.37 1013.31 1013.35 1013.50 1013.59 1013.73 1013.67 1013.33 1013.48 1013.53 1014.22 1014.73 1015.31 1015.67 1016.15 1016.86
1007.85 1008.72 1009.58 1010.64 1011.31 1011.64 1012.10 1012.32 1012.36 1012.52 1012.39 1011.85 1011.54 1011.75 1011.96 1011.94 1011.88 1011.92 1011.86 1012.25 1012.73 1012.91 1013.10 1013.03 1013.22 1013.37 1013.54 1013.62 1013.57 1013.49 1013.47 1013.54 1013.74 1013.84 1013.67 1013.68 1013.98 1014.46 1015.16 1015.68 1016.24 1016.38 1016.89
1006.90 1007.69 1008.67 1009.73 1010.64 1011.31 1011.69 1012.06 1012.36 1012.45 1012.40 1012.17 1012.14 1011.80 1011.64 1011.53 1011.52 1011.65 1011.52 1011.98 1012.35 1012.61 1012.86 1012.97 1013.14 1013.50 1013.64 1013.64 1013.67 1013.68 1013.54 1013.51 1013.58 1013.86 1013.99 1013.87 1013.94 1014.91 1015.58 1016.06 1016.33 1016.25 1016.54
Thickness
5764 5767 5768 5768 5768 5767 5768 5770 5771 5769 5770 5769 5768 5769 5767 5765 5764 5764 5761 5759 5759 5758 5757 5755 5753 5752 5749 5748 5745 5747 5750 5749 5749 5749 5749 5751 5750 5750 5752 5751 5748 5748 5745
5774 5771 5769 5770 5770 5771 5774 5773 5772 5770 5770 5770 5770 5769 5768 5765 5765 5764 5762 5760 5759 5759 5757 5756 5754 5753 5752 5751 5750 5749 5751 5750 5746 5743 5744 5743 5746 5749 5749 5747 5745 5747 5743
5781 5773 5772 5772 5772 5774 5776 5775 5773 5773 5771 5771 5770 5770 5769 5767 5765 5765 5762 5762 5761 5760 5758 5757 5756 5755 5753 5752 5753 5753 5754 5751 5745 5750 5748 5751 5751 5749 5750 5749 5745 5744 5741
5791 5782 5775 5772 5775 5776 5776 5775 5774 5775 5772 5773 5772 5771 5770 5769 5768 5767 5765 5764 5763 5762 5761 5760 5759 5757 5756 5755 5756 5757 5757 5752 5748 5752 5752 5746 5750 5748 5750 5749 5748 5746 5744
5795 5785 5777 5776 5776 5776 5777 5776 5776 5775 5775 5774 5774 5774 5773 5771 5770 5769 5768 5767 5766 5764 5762 5763 5762 5761 5760 5760 5761 5762 5763 5759 5753 5757 5758 5760 5760 5751 5756 5755 5753 5752 5749
5798 5786 5780 5778 5778 5778 5777 5777 5777 5776 5776 5777 5777 5776 5775 5773 5772 5771 5770 5770 5768 5767 5767 5766 5765 5765 5764 5765 5765 5766 5766 5765 5759 5757 5759 5762 5759 5759 5760 5758 5757 5755 5752
5799 5789 5783 5781 5779 5779 5780 5779 5778 5778 5779 5780 5780 5778 5777 5776 5775 5775 5774 5772 5772 5772 5772 5771 5770 5768 5767 5768 5769 5766 5765 5764 5760 5764 5766 5768 5766 5763 5762 5760 5759 5756 5754
5803 5792 5786 5782 5781 5782 5781 5780 5780 5781 5782 5783 5782 5782 5781 5782 5780 5779 5777 5776 5776 5776 5776 5775 5772 5771 5772 5771 5769 5768 5769 5767 5775 5771 5771 5772 5771 5764 5761 5760 5757 5754 5751
5808 5796 5789 5785 5784 5783 5783 5783 5784 5785 5785 5786 5786 5787 5787 5786 5785 5785 5783 5782 5781 5781 5779 5778 5776 5776 5773 5771 5769 5770 5771 5770 5774 5777 5776 5771 5770 5767 5763 5760 5756 5754 5752
5811 5804 5796 5791 5790 5789 5786 5787 5789 5789 5790 5790 5792 5791 5791 5791 5791 5790 5790 5790 5788 5786 5786 5784 5780 5778 5777 5776 5773 5775 5776 5776 5777 5775 5773 5766 5763 5764 5763 5762 5760 5757 5755
5809 5804 5802 5798 5796 5795 5794 5794 5793 5794 5794 5794 5797 5796 5798 5796 5802 5802 5801 5801 5796 5795 5792 5788 5788 5787 5787 5785 5781 5786 5781 5779 5773 5775 5769 5767 5766 5765 5764 5762 5760 5758 5757
5804 5805 5804 5804 5802 5803 5805 5802 5802 5802 5801 5802 5803 5806 5806 5807 5804 5787 5788 5809 5810 5807 5800 5802 5798 5792 5787 5785 5784 5795 5788 5782 5773 5775 5770 5770 5768 5766 5764 5761 5760 5759 5758
5809 5811 5810 5809 5809 5812 5810 5809 5809 5808 5809 5809 5810 5808 5809 5811 5802 5787 5792 5807 5784 5804 5809 5797 5791 5799 5789 5790 5789 5790 5789 5782 5779 5777 5773 5772 5766 5765 5760 5757 5756 5754 5752
5815 5814 5815 5812 5812 5814 5812 5810 5811 5812 5812 5813 5813 5813 5813 5803 5796 5809 5815 5823 5799 5810 5814 5810 5809 5805 5805 5798 5793 5791 5788 5790 5786 5779 5775 5773 5770 5762 5757 5752 5752 5748 5744
5817 5818 5818 5813 5811 5812 5810 5806 5810 5810 5811 5813 5816 5817 5813 5798 5794 5810 5821 5798 5822 5813 5813 5811 5813 5814 5810 5807 5802 5800 5793 5792 5785 5779 5776 5771 5766 5758 5748 5744 5741 5741 5736
5823 5821 5820 5816 5814 5812 5810 5815 5817 5816 5817 5816 5817 5819 5821 5815 5812 5818 5821 5815 5816 5817 5819 5817 5816 5814 5814 5813 5806 5804 5801 5795 5787 5783 5773 5765 5760 5752 5751 5746 5739 5734 5732
5827 5827 5823 5820 5817 5814 5815 5817 5813 5820 5821 5816 5820 5821 5821 5820 5819 5819 5815 5815 5820 5819 5819 5821 5819 5818 5816 5813 5808 5806 5804 5795 5789 5782 5774 5762 5745 5739 5736 5736 5734 5729 5726
5831 5828 5827 5829 5822 5818 5816 5820 5814 5817 5821 5824 5823 5824 5823 5821 5819 5818 5817 5819 5820 5821 5819 5819 5819 5815 5812 5810 5804 5806 5802 5794 5788 5782 5771 5754 5740 5727 5734 5728 5725 5719 5716
5833 5831 5828 5831 5825 5823 5822 5821 5821 5818 5823 5825 5830 5825 5825 5821 5819 5818 5819 5821 5819 5817 5816 5817 5814 5812 5806 5804 5803 5806 5805 5800 5789 5779 5771 5747 5742 5732 5723 5717 5716 5706 5701
5835 5833 5832 5833 5830 5828 5826 5825 5826 5827 5830 5832 5829 5829 5825 5819 5822 5813 5796 5816 5817 5813 5812 5812 5809 5811 5806 5801 5799 5801 5801 5798 5791 5782 5771 5752 5738 5728 5716 5716 5707 5698 5689
5835 5833 5832 5830 5831 5829 5826 5825 5826 5819 5825 5831 5833 5830 5825 5820 5820 5819 5810 5813 5814 5807 5805 5809 5808 5807 5802 5800 5794 5794 5798 5798 5789 5783 5771 5763 5749 5737 5718 5710 5700 5689 5680
5835 5832 5831 5831 5829 5826 5827 5828 5828 5826 5827 5832 5831 5830 5826 5822 5821 5820 5814 5817 5812 5806 5803 5805 5804 5799 5800 5795 5780 5779 5767 5770 5767 5768 5763 5752 5747 5739 5727 5711 5697 5685 5674
5837 5834 5832 5829 5828 5827 5827 5829 5828 5829 5830 5830 5830 5828 5826 5822 5819 5817 5815 5815 5813 5808 5803 5808 5803 5798 5791 5793 5788 5772 5757 5748 5750 5759 5758 5752 5745 5734 5717 5709 5694 5678 5663
5842 5841 5837 5833 5831 5828 5827 5823 5822 5821 5819 5825 5827 5826 5825 5826 5821 5817 5813 5811 5809 5807 5807 5805 5803 5796 5791 5780 5782 5779 5771 5761 5742 5728 5741 5740 5739 5728 5713 5698 5686 5671 5654
5852 5846 5842 5835 5831 5831 5828 5826 5823 5819 5822 5829 5830 5827 5825 5825 5824 5822 5821 5817 5812 5811 5808 5806 5801 5796 5790 5781 5775 5771 5765 5760 5751 5734 5723 5725 5723 5720 5702 5690 5675 5664 5651
5859 5854 5848 5838 5833 5831 5829 5826 5822 5820 5819 5820 5821 5823 5825 5826 5826 5824 5823 5819 5816 5812 5809 5805 5801 5793 5788 5782 5775 5769 5762 5754 5744 5733 5723 5723 5716 5709 5697 5684 5673 5661 5650